Weather History for Shannon, Ireland

Change the Weather History Date:

Saturday, September 28, 2013

  Actual Average Record
Temperature  
Mean Temperature 61 °F -  
Max Temperature 67 °F 58 °F 67 °F (2013)
Min Temperature 55 °F 46 °F 37 °F (2007)
Degree Days  
Heating Degree Days 4    
Growing Degree Days 11 (Base 50)    
Moisture  
Dew Point 54 °F    
Average Humidity 74    
Maximum Humidity 88    
Minimum Humidity 53    
Precipitation  
Precipitation 0.00 in 0.12 in - ()
Sea Level Pressure  
Sea Level Pressure 29.71 in    
Wind  
Wind Speed 7 mph ()    
Max Wind Speed 14 mph    
Max Gust Speed -    
Visibility 6.2 miles    
Events      
Averages and records for this station are not official NWS values.
T = Trace of Precipitation, MM = Missing Value Source: Averaged Metar Reports

Daily Weather History Graph

Daily Weather History Graph

Search for Another Location

Airport:

Trip Planner

Search our weather history database for the weather conditions in past years. The results will help you decide how hot, cold, wet, or windy it might be!

Date:

Astronomy

Sep. 28, 2013 Rise Set
Actual Time 7:31 AM IST 7:19 PM IST
Civil Twilight 6:57 AM IST 7:53 PM IST
Nautical Twilight 6:17 AM IST 8:33 PM IST
Astronomical Twilight 5:36 AM IST 9:14 PM IST
Moon 12:25 AM IST (9/28) 4:08 PM IST (9/28)
Length of Visible Light 12h 55m
Length of Day
11h 47m
Last Quarter, 38% of the Moon is Illuminated
Sep 28
Last Quarter
Oct 5
New
Oct 12
First Quarter
Oct 19
Full
Oct 27
Last Quarter

Hourly Weather History & Observations

Time (IST) Temp. Dew Point Humidity Pressure Visibility Wind Dir Wind Speed Gust Speed Precip Events Conditions
12:00 AM 60.8 °F 55.4 °F 82% 29.80 in 4.3 mi East 5.8 mph - N/A   Mostly Cloudy
12:30 AM 62.6 °F 55.4 °F 77% 29.80 in 4.3 mi East 8.1 mph - N/A   Mostly Cloudy
1:00 AM 62 °F 55 °F 71% 29.81 in 4 mi East 8.9 mph - -   Mist
1:00 AM 62.6 °F 55.4 °F 77% 29.80 in 4.3 mi East 9.2 mph - N/A   Mostly Cloudy
1:30 AM 60.8 °F 55.4 °F 82% 29.77 in 3.7 mi East 10.4 mph - N/A   Mostly Cloudy
2:00 AM 60.8 °F 53.6 °F 77% 29.77 in 3.7 mi ESE 10.4 mph - N/A   Mostly Cloudy
2:30 AM 60.8 °F 53.6 °F 77% 29.77 in 3.7 mi ESE 9.2 mph - N/A   Mostly Cloudy
3:00 AM 60.8 °F 53.6 °F 77% 29.77 in 3.7 mi ESE 8.1 mph - N/A   Mostly Cloudy
3:30 AM 60.8 °F 55.4 °F 82% 29.77 in 3.7 mi East 5.8 mph - N/A   Mostly Cloudy
4:00 AM 60.8 °F 53.6 °F 77% 29.77 in 5.6 mi East 8.1 mph - N/A   Mostly Cloudy
4:30 AM 59.0 °F 53.6 °F 82% 29.74 in 6.2 mi East 9.2 mph - N/A   Mostly Cloudy
5:00 AM 59.0 °F 53.6 °F 82% 29.74 in 6.2 mi East 8.1 mph - N/A   Mostly Cloudy
5:30 AM 59.0 °F 53.6 °F 82% 29.74 in 6.2 mi East 5.8 mph - N/A   Mostly Cloudy
6:00 AM 59.0 °F 51.8 °F 77% 29.74 in 6.2 mi ENE 5.8 mph - N/A   Mostly Cloudy
6:30 AM 59.0 °F 51.8 °F 77% 29.71 in 6.2 mi ENE 5.8 mph - N/A   Mostly Cloudy
7:00 AM 56 °F 51 °F 79% 29.73 in 12 mi NNE 6.7 mph - -   Scattered Clouds
7:00 AM 57.2 °F 51.8 °F 82% 29.71 in 6.2 mi NNE 5.8 mph - N/A   Mostly Cloudy
7:30 AM 55.4 °F 51.8 °F 88% 29.71 in 6.2 mi NE 9.2 mph - N/A   Scattered Clouds
8:00 AM 55.4 °F 51.8 °F 88% 29.74 in 6.2 mi North 2.3 mph - N/A   Mostly Cloudy
8:30 AM 55.4 °F 51.8 °F 88% 29.74 in 6.2 mi NNW 3.5 mph - N/A   Scattered Clouds
9:00 AM 57.2 °F 51.8 °F 82% 29.74 in 6.2 mi NE 5.8 mph - N/A   Mostly Cloudy
9:30 AM 59.0 °F 51.8 °F 77% 29.71 in 6.2 mi NNE 8.1 mph - N/A   Mostly Cloudy
10:00 AM 60.8 °F 50.0 °F 68% 29.74 in 6.2 mi ENE 5.8 mph - N/A   Scattered Clouds
10:30 AM 62.6 °F 50.0 °F 63% 29.74 in 6.2 mi ENE 6.9 mph - N/A   Scattered Clouds
11:00 AM 62.6 °F 51.8 °F 68% 29.74 in 6.2 mi ENE 8.1 mph - N/A   Scattered Clouds
11:30 AM 62.6 °F 51.8 °F 68% 29.71 in 6.2 mi NE 6.9 mph - N/A   Scattered Clouds
12:00 PM 64.4 °F 51.8 °F 64% 29.71 in 6.2 mi ESE 9.2 mph - N/A   Mostly Cloudy
12:30 PM 64.4 °F 51.8 °F 64% 29.71 in 6.2 mi ESE 6.9 mph - N/A   Mostly Cloudy
1:00 PM 65 °F 52 °F 53% 29.71 in 25 mi East 8.9 mph - -   Scattered Clouds
1:00 PM 66.2 °F 51.8 °F 60% 29.68 in 6.2 mi East 9.2 mph - N/A   Mostly Cloudy
1:30 PM 66.2 °F 51.8 °F 60% 29.68 in 6.2 mi ESE 10.4 mph - N/A   Mostly Cloudy
2:00 PM 66.2 °F 53.6 °F 64% 29.68 in 6.2 mi East 10.4 mph - N/A   Mostly Cloudy
2:30 PM 66.2 °F 53.6 °F 64% 29.68 in 6.2 mi East 10.4 mph - N/A   Mostly Cloudy
3:00 PM 66.2 °F 55.4 °F 68% 29.68 in 6.2 mi East 11.5 mph - N/A   Mostly Cloudy
3:30 PM 66.2 °F 55.4 °F 68% 29.68 in 6.2 mi East 12.7 mph - N/A   Mostly Cloudy
4:00 PM 66.2 °F 55.4 °F 68% 29.65 in 6.2 mi ENE 13.8 mph - N/A   Mostly Cloudy
4:30 PM 68.0 °F 55.4 °F 64% 29.65 in 6.2 mi ESE 12.7 mph - N/A   Mostly Cloudy
5:00 PM 66.2 °F 55.4 °F 68% 29.65 in 6.2 mi East 10.4 mph - N/A   Mostly Cloudy
5:30 PM 66.2 °F 57.2 °F 73% 29.65 in 6.2 mi ESE 9.2 mph - N/A   Mostly Cloudy
6:00 PM 66.2 °F 57.2 °F 73% 29.65 in 6.2 mi East 9.2 mph - N/A   Mostly Cloudy
6:30 PM 66.2 °F 57.2 °F 73% 29.65 in 6.2 mi East 8.1 mph - N/A   Mostly Cloudy
7:00 PM 65 °F 57 °F 69% 29.68 in 19 mi ENE 6.7 mph - -   Mostly Cloudy
7:00 PM 64.4 °F 57.2 °F 77% 29.65 in 6.2 mi ENE 5.8 mph - N/A   Mostly Cloudy
7:30 PM 64.4 °F 57.2 °F 77% 29.65 in 6.2 mi NNE 6.9 mph - N/A   Mostly Cloudy
8:00 PM 64.4 °F 55.4 °F 73% 29.65 in 6.2 mi ENE 8.1 mph - N/A   Mostly Cloudy
8:30 PM 64.4 °F 55.4 °F 73% 29.65 in 6.2 mi East 8.1 mph - N/A   Mostly Cloudy
9:00 PM 62.6 °F 55.4 °F 77% 29.68 in 6.2 mi East 9.2 mph - N/A   Mostly Cloudy
9:30 PM 62.6 °F 55.4 °F 77% 29.68 in 6.2 mi East 9.2 mph - N/A   Mostly Cloudy
10:00 PM 62.6 °F 55.4 °F 77% 29.68 in 6.2 mi East 9.2 mph - N/A   Mostly Cloudy
10:30 PM 60.8 °F 55.4 °F 82% 29.68 in 6.2 mi East 8.1 mph - N/A   Mostly Cloudy
11:00 PM 60.8 °F 55.4 °F 82% 29.68 in 6.2 mi East 8.1 mph - N/A   Mostly Cloudy
11:30 PM 60.8 °F 55.4 °F 82% 29.65 in 6.2 mi East 12.7 mph - N/A   Mostly Cloudy